[[{"header":{"parameterUnit":"m.s-1","parameterCategory":2,"la1":30.2991,"la2":30.254,"lo1":-89.0895,"lo2":-89.0444,"dy":0.0017,"dx":0.0017,"nx":28,"ny":28,"refTime":"2024-09-04T03:00:00:Z","depth":"0","parameterNumber":2,"parameterNumberName":"U-component_of_CURRENTS"},"data":[0,0,0,0,0,0,0,0,0,0,0,0,0,0,0,0,0,0,0,0,0,0,0,0,0,0,0,0,0,0,0,0,0,0,0,0,0,0,0,0,0,0,0,0,0,0,0,0,0,0,0,0,0,0,0,0,0,0,-0.1801,-0.1801,0,-0.1893,-0.1894,-0.1895,-0.1858,-0.1856,-0.1853,-0.1851,-0.1818,-0.1819,-0.1821,0,0,0,0,0,0,0,0,0,0,0,0,0,-0.1683,-0.1685,-0.18,-0.1802,-0.1803,-0.1893,-0.1894,-0.1896,-0.1858,-0.1856,-0.1853,-0.185,-0.1818,-0.1819,-0.1821,0,0,0,0,0,0,0,0,0,0,0,0,0,-0.1752,-0.1686,-0.18,-0.1794,-0.1794,-0.1893,-0.1894,-0.1896,-0.1859,-0.1855,-0.1852,-0.1849,-0.1817,-0.1819,-0.1821,-0.1901,0,0,-0.1827,-0.1828,0,0,0,0,0,0,0,0,-0.1748,-0.1756,-0.1794,-0.1795,-0.1795,-0.1859,-0.1841,-0.1891,-0.186,-0.1836,-0.1851,-0.1847,-0.1822,-0.1824,-0.1852,-0.19,-0.1898,-0.1827,-0.1828,-0.1829,-0.1829,0,0,0,0,0,0,0,-0.1743,-0.1752,-0.1838,-0.1795,-0.1796,-0.1818,-0.1823,-0.1851,-0.1845,-0.1837,-0.1835,-0.1844,-0.1821,-0.185,-0.185,-0.1898,-0.1827,-0.1829,-0.183,-0.183,-0.1941,-0.1943,0,0,0,0,0,0,-0.1729,-0.1748,-0.1835,-0.1841,-0.1761,-0.1822,-0.1828,-0.1843,-0.1848,-0.1846,-0.1847,-0.1842,-0.1849,-0.1848,-0.1849,-0.1883,-0.1829,-0.1831,-0.1832,-0.194,-0.1942,-0.1944,0,0,0,0,0,0,-0.1726,-0.1736,-0.1831,-0.1795,-0.1808,-0.1827,-0.1845,-0.1847,-0.1863,-0.1857,-0.1851,-0.1859,-0.1846,-0.1846,-0.1871,-0.1883,-0.1831,-0.1833,-0.1938,-0.194,-0.1943,-0.199,0,0,0,0,0,0,-0.1723,-0.1735,-0.1747,-0.1794,-0.181,-0.1889,-0.1848,-0.1851,-0.1875,-0.1869,-0.1866,-0.186,-0.1843,-0.1869,-0.1873,-0.1885,-0.1835,-0.1935,-0.1939,-0.1942,-0.1986,-0.1994,-0.2001,0,0,0,0,0,-0.1718,-0.1754,-0.1747,-0.1758,-0.1824,-0.1891,-0.1902,-0.1904,-0.1879,-0.1903,-0.1895,-0.186,-0.1892,-0.1873,-0.1877,-0.1889,-0.1934,-0.1938,-0.1942,-0.1983,-0.1993,-0.2001,0,0,0,0,0,0,-0.1715,-0.1755,-0.1748,-0.1794,-0.1835,-0.1884,-0.1916,-0.1914,-0.1934,-0.1921,-0.1897,-0.1894,-0.1916,-0.1911,-0.189,-0.1933,-0.1903,-0.1908,-0.1933,-0.1942,-0.1949,-0.1942,-0.1836,0,0,0,0,0,-0.172,-0.175,-0.1792,-0.183,-0.1855,-0.1886,-0.1913,-0.1916,-0.194,-0.1945,-0.194,-0.1937,-0.1946,-0.1947,-0.1959,-0.1998,-0.1964,-0.2006,-0.2014,-0.202,-0.2019,-0.1989,-0.1992,-0.1957,-0.1957,-0.1957,0,0,-0.1731,-0.1756,-0.1773,-0.183,-0.1865,-0.1922,-0.1895,-0.1945,-0.1977,-0.194,-0.1978,-0.1968,-0.1965,-0.1995,-0.2004,-0.1985,-0.2014,-0.2025,-0.203,-0.2026,-0.1993,-0.1996,-0.1999,-0.196,-0.196,-0.1959,0,0,-0.1781,-0.1792,-0.184,-0.188,-0.1932,-0.1953,-0.1966,-0.2014,-0.2017,-0.2065,-0.2032,-0.2028,-0.2064,-0.2048,-0.2048,-0.2111,-0.2056,-0.2116,-0.2144,-0.2115,-0.2116,-0.2117,-0.2077,-0.2074,-0.2116,-0.2116,-0.2116,0,-0.1792,-0.1845,-0.1867,-0.1929,-0.1956,-0.1967,-0.2021,-0.2053,-0.2094,-0.2092,-0.2077,-0.2095,-0.2086,-0.2098,-0.2116,-0.2123,-0.2096,-0.2106,-0.2121,-0.2121,-0.2121,-0.208,-0.2076,-0.2119,-0.2118,-0.2118,-0.2118,0,-0.1879,-0.1921,-0.196,-0.2025,-0.2063,-0.2113,-0.2148,-0.217,-0.2164,-0.2175,-0.2183,-0.2176,-0.2168,-0.2173,-0.2168,-0.2169,-0.2145,-0.2132,-0.209,-0.2127,-0.2082,-0.2077,-0.2123,-0.2122,-0.2121,-0.212,0,0,-0.1888,-0.1997,-0.2002,-0.203,-0.2105,-0.2136,-0.2193,-0.2226,-0.2229,-0.2257,-0.2251,-0.2273,-0.2237,-0.2236,-0.2213,-0.2197,-0.2176,-0.2172,-0.217,-0.2118,-0.2103,-0.2115,-0.211,-0.2163,-0.2163,-0.2162,-0.2068,0,-0.1938,-0.2037,-0.2082,-0.2157,-0.2202,-0.2224,-0.2265,-0.229,-0.2295,-0.2297,-0.2278,-0.2275,-0.2272,-0.2249,-0.2238,-0.2184,-0.2166,-0.2202,-0.2088,-0.2084,-0.2078,-0.2106,-0.2137,-0.2059,-0.2063,-0.2062,-0.2062,0,-0.1987,-0.204,-0.2116,-0.218,-0.2201,-0.2244,-0.2255,-0.2298,-0.2313,-0.2312,-0.2306,-0.229,-0.2269,-0.2258,-0.2191,-0.2213,-0.2169,-0.2133,-0.2128,-0.2118,-0.2088,-0.2026,-0.2049,-0.2074,-0.2053,-0.2054,-0.2054,0,-0.1928,-0.2048,-0.2085,-0.2117,-0.2206,-0.2221,-0.2256,-0.2285,-0.2282,-0.2307,-0.2283,-0.2283,-0.2234,-0.2209,-0.2155,-0.2163,-0.2075,-0.2065,-0.2036,-0.2035,-0.2028,-0.2028,-0.205,-0.2023,-0.2024,-0.2024,-0.2024,0,-0.1933,-0.1965,-0.2058,-0.2078,-0.2094,-0.218,-0.2178,-0.2217,-0.2238,-0.2225,-0.2267,-0.2236,-0.2218,-0.2173,-0.2147,-0.2077,-0.2061,-0.2043,-0.2017,-0.2048,-0.2051,-0.2046,-0.2043,-0.202,-0.2021,-0.2022,-0.2022,0,-0.1855,-0.1928,-0.1965,-0.2049,-0.2064,-0.2066,-0.2109,-0.2111,-0.2154,-0.2131,-0.2133,-0.2155,-0.2123,-0.2108,-0.2047,-0.2033,-0.198,-0.1971,-0.2011,-0.1993,-0.2004,-0.2002,-0.1925,-0.1882,-0.1917,-0.1917,-0.1916,0,-0.1826,-0.1836,-0.1894,-0.1894,-0.1929,-0.1949,-0.1956,-0.2034,-0.2039,-0.2078,-0.2054,-0.2046,-0.2058,-0.1996,-0.1998,-0.197,-0.1946,-0.195,-0.1984,-0.2017,-0.1994,-0.1963,-0.193,-0.1983,-0.1983,-0.1984,-0.1984,0,-0.1741,-0.175,-0.1771,-0.1772,-0.1782,-0.1793,-0.1827,-0.1824,-0.1915,-0.1931,-0.1971,-0.2004,-0.2,-0.2029,-0.2007,-0.1979,-0.1956,-0.1955,-0.1976,-0.2046,-0.2023,-0.1966,-0.2022,-0.1987,-0.1987,-0.1986,-0.1986,-0.1986,-0.1642,-0.1623,-0.1639,-0.1634,-0.1647,-0.1659,-0.1647,-0.1717,-0.1746,-0.1817,-0.1897,-0.1994,-0.207,-0.2078,-0.2044,-0.2037,-0.1961,-0.2014,-0.2003,-0.1963,-0.1954,-0.2023,-0.1974,-0.1974,-0.1974,-0.1973,-0.1973,0,-0.1517,-0.1516,-0.1507,-0.1508,-0.149,-0.1536,-0.1564,-0.1562,-0.1607,-0.1754,-0.1843,-0.2076,-0.2135,-0.2174,-0.2199,-0.2137,-0.2063,-0.2067,-0.2047,-0.2002,-0.2062,-0.2104,-0.2099,-0.2099,-0.2099,-0.2099,-0.2099,-0.2099,-0.1448,-0.1404,-0.1414,-0.1356,-0.1359,-0.1322,-0.133,-0.1367,-0.1454,-0.1638,-0.1843,-0.205,-0.2125,-0.2367,-0.2337,-0.2236,-0.2144,-0.2085,-0.2017,-0.2116,-0.2111,-0.2106,-0.2148,-0.2152,-0.2152,-0.1956,-0.1955,-0.1954]},{"header":{"parameterUnit":"m.s-1","parameterCategory":2,"la1":30.2991,"la2":30.254,"lo1":-89.0895,"lo2":-89.0444,"dy":0.0017,"dx":0.0017,"nx":28,"ny":28,"refTime":"2024-09-04T03:00:00:Z","depth":"0","parameterNumber":3,"parameterNumberName":"V-component_of_CURRENTS"},"data":[0,0,0,0,0,0,0,0,0,0,0,0,0,0,0,0,0,0,0,0,0,0,0,0,0,0,0,0,0,0,0,0,0,0,0,0,0,0,0,0,0,0,0,0,0,0,0,0,0,0,0,0,0,0,0,0,0,0,-0.0191,-0.019,0,-0.015,-0.0149,-0.0148,-0.0119,-0.0119,-0.0119,-0.0119,-0.0029,-0.0027,-0.0024,0,0,0,0,0,0,0,0,0,0,0,0,0,-0.019,-0.019,-0.0191,-0.019,-0.019,-0.015,-0.0149,-0.0148,-0.0119,-0.0119,-0.0119,-0.0119,-0.003,-0.0027,-0.0024,0,0,0,0,0,0,0,0,0,0,0,0,0,-0.0172,-0.019,-0.0191,-0.0172,-0.017,-0.015,-0.0149,-0.0148,-0.0119,-0.0119,-0.0119,-0.0119,-0.0031,-0.0027,-0.0024,-0.0003,0,0,-0.0013,-0.0012,0,0,0,0,0,0,0,0,-0.0173,-0.0172,-0.0175,-0.0173,-0.0171,-0.0141,-0.0116,-0.0098,-0.0119,-0.0136,-0.0119,-0.0118,-0.0064,-0.0057,-0.0047,0.0001,0.0005,-0.0013,-0.0011,-0.0009,-0.0008,0,0,0,0,0,0,0,-0.0174,-0.0173,-0.0172,-0.0175,-0.0172,-0.0148,-0.0145,-0.0112,-0.0098,-0.0134,-0.0133,-0.0132,-0.0062,-0.0051,-0.0045,0.0006,-0.0013,-0.001,-0.0008,-0.0006,0.0085,0.0086,0,0,0,0,0,0,-0.0187,-0.0174,-0.0173,-0.0171,-0.0174,-0.0148,-0.0145,-0.0149,-0.0099,-0.0093,-0.0132,-0.0131,-0.0057,-0.0049,-0.0042,-0.0006,-0.0009,-0.0006,-0.0004,0.0085,0.0085,0.0086,0,0,0,0,0,0,-0.0187,-0.0187,-0.0175,-0.0173,-0.017,-0.0149,-0.0153,-0.0148,-0.0141,-0.0098,-0.009,-0.013,-0.0056,-0.0046,-0.0008,-0.0003,-0.0004,-0.0001,0.0085,0.0085,0.0086,0.0059,0,0,0,0,0,0,-0.0187,-0.0188,-0.0193,-0.0174,-0.0171,-0.017,-0.0153,-0.0148,-0.0142,-0.014,-0.0094,-0.0086,-0.0056,-0.0013,-0.0004,0.0002,0.0002,0.0084,0.0085,0.0085,0.006,0.0059,0.0058,0,0,0,0,0,-0.0187,-0.0206,-0.0194,-0.0193,-0.018,-0.0171,-0.0166,-0.0149,-0.0142,-0.0141,-0.0103,-0.0087,-0.0003,-0.001,0.0001,0.0008,0.0084,0.0085,0.0085,0.006,0.0059,0.0058,0,0,0,0,0,0,-0.0214,-0.0204,-0.019,-0.0206,-0.0189,-0.0167,-0.0171,-0.0154,-0.0125,-0.0122,-0.0079,-0.0067,-0.0033,-0.0009,-0.0017,0.0036,0.0041,0.0044,0.0018,0.0018,0.0017,0.0006,0.0005,0,0,0,0,0,-0.0221,-0.0229,-0.021,-0.0221,-0.0217,-0.0192,-0.0186,-0.0171,-0.0145,-0.0133,-0.01,-0.0061,-0.0022,0.0,0.0034,0.0065,0.0085,0.0076,0.0075,0.0074,0.0072,0.0116,0.0119,0.0088,0.0088,0.0088,0,0,-0.0234,-0.023,-0.0235,-0.0226,-0.0214,-0.0209,-0.0188,-0.0186,-0.0172,-0.0127,-0.0102,-0.0065,-0.0015,0.0021,0.0038,0.0043,0.009,0.0075,0.0073,0.0072,0.0117,0.012,0.0123,0.0089,0.0089,0.0089,0,0,-0.0272,-0.0262,-0.0282,-0.0266,-0.0252,-0.023,-0.0232,-0.0207,-0.0189,-0.0158,-0.0119,-0.0077,-0.0028,0.0017,0.0045,0.006,0.0081,0.0065,0.0057,0.01,0.0103,0.0105,0.0119,0.0123,0.0068,0.0068,0.0068,0,-0.0289,-0.0304,-0.0285,-0.0292,-0.0281,-0.0243,-0.0249,-0.0221,-0.0183,-0.0162,-0.0156,-0.0066,-0.0028,0.0034,0.0039,0.0058,0.0074,0.0057,0.0098,0.0102,0.0105,0.0118,0.0123,0.0067,0.0067,0.0067,0.0067,0,-0.0336,-0.0338,-0.0349,-0.0339,-0.0322,-0.0323,-0.028,-0.0258,-0.023,-0.0196,-0.0141,-0.0082,-0.0028,-0.0008,0.0022,0.007,0.0069,0.0089,0.0098,0.0106,0.012,0.0125,0.0065,0.0065,0.0066,0.0066,0,0,-0.0402,-0.0387,-0.0388,-0.0381,-0.0345,-0.0338,-0.0308,-0.0268,-0.0244,-0.0197,-0.0161,-0.0087,-0.0055,-0.002,0.0026,0.0067,0.0101,0.0083,0.0086,0.0091,0.0173,0.0196,0.0204,0.0128,0.0129,0.013,0.0168,0,-0.0443,-0.0467,-0.044,-0.0439,-0.0443,-0.0384,-0.0357,-0.0308,-0.0259,-0.0213,-0.0139,-0.009,-0.0058,-0.003,0.0017,0.0088,0.0117,0.0088,0.017,0.0172,0.0187,0.0212,0.0257,0.0297,0.0173,0.0174,0.0175,0,-0.05,-0.0502,-0.0522,-0.0482,-0.0477,-0.0465,-0.0406,-0.0375,-0.0289,-0.025,-0.0183,-0.0124,-0.0044,-0.0026,0.0087,0.0065,0.011,0.0156,0.0159,0.0195,0.0206,0.0274,0.0312,0.0435,0.0184,0.0183,0.0183,0,-0.0563,-0.0554,-0.0571,-0.056,-0.0515,-0.0503,-0.0471,-0.0394,-0.036,-0.0273,-0.0241,-0.0139,-0.0089,-0.0006,0.0092,0.009,0.0204,0.0216,0.0272,0.0272,0.0335,0.034,0.0501,0.0279,0.0279,0.0279,0.0278,0,-0.0621,-0.0627,-0.0605,-0.0612,-0.061,-0.0559,-0.0538,-0.0485,-0.0412,-0.0371,-0.027,-0.0216,-0.0081,0.0007,0.0086,0.02,0.02,0.0274,0.0294,0.0325,0.0328,0.0457,0.0499,0.028,0.028,0.0279,0.0279,0,-0.0686,-0.0677,-0.0685,-0.0654,-0.0645,-0.0644,-0.0587,-0.0564,-0.0492,-0.0435,-0.0409,-0.0272,-0.0147,-0.0021,0.0119,0.019,0.0366,0.0326,0.034,0.0361,0.0532,0.0569,0.0725,0.0748,0.0401,0.0402,0.0402,0,-0.0721,-0.074,-0.0726,-0.0729,-0.0717,-0.0704,-0.0688,-0.0616,-0.0586,-0.0466,-0.0443,-0.0306,-0.02,0.0015,0.0186,0.0336,0.0406,0.0441,0.0456,0.0558,0.0614,0.064,0.0648,0.0519,0.052,0.0522,0.0523,0,-0.077,-0.077,-0.0775,-0.0788,-0.0785,-0.0775,-0.0747,-0.0738,-0.0648,-0.0596,-0.0499,-0.0404,-0.0156,0.0073,0.0283,0.037,0.0537,0.0473,0.0596,0.0738,0.0762,0.0786,0.0451,0.0535,0.0534,0.0533,0.0532,0.0532,-0.0794,-0.081,-0.082,-0.0831,-0.0836,-0.084,-0.0842,-0.0808,-0.0774,-0.0688,-0.0562,-0.0401,-0.0011,0.0317,0.0418,0.0695,0.0639,0.0773,0.081,0.0827,0.0863,0.0537,0.0634,0.0633,0.0632,0.0632,0.0632,0,-0.0811,-0.0831,-0.0852,-0.0867,-0.0892,-0.0878,-0.0873,-0.0877,-0.0861,-0.0741,-0.0634,-0.0184,0.0179,0.0508,0.0934,0.1054,0.1046,0.1099,0.1167,0.1155,0.09,0.092,0.1064,0.1064,0.1064,0.1064,0.1063,0.1063,-0.0815,-0.0845,-0.0863,-0.0912,-0.0929,-0.0958,-0.0965,-0.0968,-0.0902,-0.0731,-0.049,-0.0271,0.0311,0.1084,0.1445,0.1427,0.1495,0.1481,0.1489,0.1353,0.1326,0.13,0.1332,0.156,0.1561,0.1738,0.174,0.1742]}],[{"header":{"parameterUnit":"m.s-1","parameterCategory":2,"la1":30.2991,"la2":30.254,"lo1":-89.0895,"lo2":-89.0444,"dy":0.0017,"dx":0.0017,"nx":28,"ny":28,"refTime":"2024-09-04T03:00:00:Z","depth":"2","parameterNumber":2,"parameterNumberName":"U-component_of_CURRENTS"},"data":[0,0,0,0,0,0,0,0,0,0,0,0,0,0,0,0,0,0,0,0,0,0,0,0,0,0,0,0,0,0,0,0,0,0,0,0,0,0,0,0,0,0,0,0,0,0,0,0,0,0,0,0,0,0,0,0,0,0,-0.1694,-0.1694,0,-0.178,-0.1781,-0.1782,-0.1749,-0.1746,-0.1744,-0.1742,-0.1713,-0.1714,-0.1716,0,0,0,0,0,0,0,0,0,0,0,0,0,-0.1585,-0.1587,-0.1694,-0.1695,-0.1695,-0.178,-0.1781,-0.1782,-0.1749,-0.1746,-0.1744,-0.1741,-0.1713,-0.1714,-0.1716,0,0,0,0,0,0,0,0,0,0,0,0,0,-0.1649,-0.1587,-0.1693,-0.1688,-0.1688,-0.1779,-0.1781,-0.1783,-0.1749,-0.1746,-0.1743,-0.174,-0.1712,-0.1714,-0.1716,-0.1791,0,0,-0.1722,-0.1722,0,0,0,0,0,0,0,0,-0.1645,-0.1653,-0.1688,-0.1688,-0.1689,-0.1749,-0.1732,-0.1779,-0.175,-0.1728,-0.1742,-0.1738,-0.1716,-0.1717,-0.1744,-0.179,-0.1789,-0.1722,-0.1723,-0.1724,-0.1724,0,0,0,0,0,0,0,-0.1641,-0.165,-0.1729,-0.1689,-0.169,-0.171,-0.1715,-0.1742,-0.1738,-0.1729,-0.1727,-0.1735,-0.1715,-0.1743,-0.1743,-0.1788,-0.1722,-0.1723,-0.1724,-0.1725,-0.1838,-0.184,0,0,0,0,0,0,-0.1627,-0.1646,-0.1726,-0.1732,-0.1657,-0.1714,-0.172,-0.1734,-0.174,-0.1738,-0.1738,-0.1733,-0.1741,-0.1741,-0.1742,-0.178,-0.1724,-0.1725,-0.1726,-0.1836,-0.1838,-0.184,0,0,0,0,0,0,-0.1624,-0.1634,-0.1723,-0.1689,-0.1701,-0.1718,-0.1735,-0.1737,-0.1755,-0.1747,-0.1743,-0.175,-0.1739,-0.1739,-0.1766,-0.178,-0.1726,-0.1728,-0.1834,-0.1837,-0.1839,-0.1889,0,0,0,0,0,0,-0.1621,-0.1632,-0.1645,-0.1688,-0.1702,-0.1778,-0.1738,-0.1741,-0.1764,-0.1759,-0.1758,-0.1752,-0.1736,-0.1763,-0.1767,-0.1781,-0.1729,-0.1831,-0.1835,-0.1838,-0.1885,-0.1893,-0.19,0,0,0,0,0,-0.1617,-0.1651,-0.1645,-0.1655,-0.1717,-0.1779,-0.179,-0.1792,-0.1768,-0.1792,-0.1786,-0.1752,-0.1787,-0.1767,-0.1772,-0.1786,-0.183,-0.1834,-0.1838,-0.1881,-0.1891,-0.19,0,0,0,0,0,0,-0.1616,-0.1652,-0.1646,-0.1689,-0.1728,-0.1772,-0.1804,-0.1801,-0.1823,-0.1812,-0.1789,-0.1786,-0.1811,-0.1806,-0.1783,-0.1831,-0.1799,-0.1804,-0.183,-0.184,-0.1847,-0.1842,-0.1731,0,0,0,0,0,-0.1621,-0.165,-0.1688,-0.1724,-0.1747,-0.1776,-0.1802,-0.1806,-0.1829,-0.1835,-0.1831,-0.1831,-0.1841,-0.1843,-0.1856,-0.1895,-0.1861,-0.1905,-0.1913,-0.1919,-0.192,-0.1888,-0.1892,-0.1854,-0.1854,-0.1854,0,0,-0.1632,-0.1655,-0.1672,-0.1725,-0.1758,-0.1812,-0.1785,-0.1834,-0.1864,-0.183,-0.187,-0.1863,-0.186,-0.1893,-0.1902,-0.1883,-0.1914,-0.1924,-0.193,-0.1927,-0.1893,-0.1896,-0.1899,-0.1857,-0.1857,-0.1856,0,0,-0.1681,-0.1691,-0.1737,-0.1776,-0.1825,-0.1844,-0.1856,-0.1903,-0.1906,-0.1955,-0.1925,-0.1925,-0.1961,-0.1948,-0.1948,-0.2012,-0.1957,-0.2019,-0.205,-0.2019,-0.2021,-0.2022,-0.1982,-0.1979,-0.2019,-0.2019,-0.2019,0,-0.1693,-0.1743,-0.1762,-0.1822,-0.1848,-0.1858,-0.191,-0.1941,-0.1983,-0.1981,-0.1969,-0.1991,-0.1984,-0.1998,-0.2019,-0.2025,-0.1998,-0.201,-0.2025,-0.2026,-0.2026,-0.1985,-0.1981,-0.2022,-0.2022,-0.2021,-0.2021,0,-0.1776,-0.1817,-0.1854,-0.1916,-0.1953,-0.2002,-0.2034,-0.2057,-0.2053,-0.2064,-0.2076,-0.2072,-0.2067,-0.2075,-0.2071,-0.2075,-0.2052,-0.2037,-0.1994,-0.2032,-0.1987,-0.1982,-0.2026,-0.2025,-0.2024,-0.2023,0,0,-0.1786,-0.1889,-0.1895,-0.1922,-0.1995,-0.2025,-0.208,-0.2112,-0.2114,-0.2146,-0.2142,-0.2169,-0.2138,-0.2137,-0.2119,-0.2104,-0.2086,-0.2081,-0.2078,-0.2026,-0.2011,-0.2022,-0.2017,-0.2071,-0.2071,-0.2071,-0.1977,0,-0.1835,-0.1928,-0.1973,-0.2047,-0.2088,-0.2111,-0.215,-0.2176,-0.2181,-0.2185,-0.2169,-0.217,-0.2171,-0.2153,-0.2144,-0.2094,-0.2076,-0.2112,-0.1995,-0.1991,-0.1984,-0.2014,-0.1876,-0.1784,-0.1972,-0.1971,-0.197,0,-0.1883,-0.1932,-0.2005,-0.2067,-0.2087,-0.2131,-0.2143,-0.2186,-0.22,-0.22,-0.2198,-0.2185,-0.217,-0.2161,-0.2099,-0.2121,-0.2079,-0.2044,-0.2039,-0.2028,-0.1994,-0.1778,-0.1767,-0.1961,-0.1962,-0.1962,-0.1963,0,-0.1827,-0.1941,-0.1977,-0.2008,-0.2094,-0.2111,-0.2146,-0.2175,-0.2171,-0.2198,-0.2175,-0.218,-0.2135,-0.2112,-0.2063,-0.2072,-0.1986,-0.1975,-0.1945,-0.1943,-0.1793,-0.178,-0.1934,-0.1934,-0.1934,-0.1934,-0.1935,0,-0.1832,-0.1863,-0.195,-0.1971,-0.1986,-0.2072,-0.2073,-0.2111,-0.2132,-0.212,-0.2163,-0.2133,-0.212,-0.2076,-0.2054,-0.1986,-0.197,-0.1954,-0.1926,-0.181,-0.1801,-0.193,-0.1931,-0.1931,-0.1932,-0.1932,-0.1933,0,-0.1759,-0.1828,-0.1863,-0.1943,-0.1958,-0.1963,-0.2007,-0.2008,-0.2052,-0.2031,-0.2034,-0.2055,-0.2026,-0.2013,-0.1954,-0.1941,-0.1899,-0.1879,-0.1752,-0.1714,-0.1875,-0.188,-0.1825,-0.1825,-0.1825,-0.1824,-0.1824,0,-0.1732,-0.1741,-0.1796,-0.1796,-0.183,-0.1852,-0.1859,-0.1936,-0.194,-0.1979,-0.1957,-0.195,-0.1957,-0.1897,-0.1863,-0.1826,-0.1864,-0.1682,-0.1693,-0.1889,-0.1866,-0.1872,-0.1876,-0.1493,-0.1491,-0.1488,-0.1486,0,-0.165,-0.166,-0.1679,-0.1679,-0.169,-0.17,-0.1734,-0.173,-0.1821,-0.1832,-0.1871,-0.1899,-0.1862,-0.1787,-0.175,-0.1706,-0.169,-0.1637,-0.1832,-0.1578,-0.1578,-0.1557,-0.1571,-0.1466,-0.1468,-0.1469,-0.147,-0.1471,-0.1556,-0.1537,-0.1552,-0.1547,-0.1559,-0.157,-0.1558,-0.161,-0.1632,-0.1655,-0.1752,-0.1752,-0.1731,-0.1632,-0.1561,-0.1486,-0.1595,-0.152,-0.1525,-0.1532,-0.1547,-0.1551,-0.1433,-0.1435,-0.1436,-0.1438,-0.1439,0,-0.1427,-0.1433,-0.1424,-0.1424,-0.1398,-0.1453,-0.1478,-0.1441,-0.1459,-0.1515,-0.1559,-0.145,-0.1437,-0.141,-0.1283,-0.128,-0.1234,-0.1217,-0.115,-0.1172,-0.1191,-0.1186,-0.0977,-0.0976,-0.0975,-0.0973,0,0,-0.1357,-0.1311,-0.1319,-0.1259,-0.1269,-0.1215,-0.1221,-0.1195,-0.12,-0.1182,-0.1204,-0.135,-0.1392,-0.1187,-0.1135,-0.1039,-0.1085,-0.0986,-0.1356,-0.1298,-0.1315,-0.1368,-0.1387,0,0,0,0,0]},{"header":{"parameterUnit":"m.s-1","parameterCategory":2,"la1":30.2991,"la2":30.254,"lo1":-89.0895,"lo2":-89.0444,"dy":0.0017,"dx":0.0017,"nx":28,"ny":28,"refTime":"2024-09-04T03:00:00:Z","depth":"2","parameterNumber":3,"parameterNumberName":"V-component_of_CURRENTS"},"data":[0,0,0,0,0,0,0,0,0,0,0,0,0,0,0,0,0,0,0,0,0,0,0,0,0,0,0,0,0,0,0,0,0,0,0,0,0,0,0,0,0,0,0,0,0,0,0,0,0,0,0,0,0,0,0,0,0,0,-0.0187,-0.0187,0,-0.0149,-0.0148,-0.0147,-0.0118,-0.0118,-0.0118,-0.0118,-0.003,-0.0028,-0.0025,0,0,0,0,0,0,0,0,0,0,0,0,0,-0.0183,-0.0184,-0.0187,-0.0187,-0.0186,-0.0149,-0.0148,-0.0147,-0.0118,-0.0118,-0.0118,-0.0118,-0.0031,-0.0028,-0.0025,0,0,0,0,0,0,0,0,0,0,0,0,0,-0.0167,-0.0184,-0.0187,-0.0169,-0.0167,-0.0149,-0.0148,-0.0147,-0.0118,-0.0118,-0.0118,-0.0118,-0.0031,-0.0028,-0.0025,-0.0006,0,0,-0.0014,-0.0013,0,0,0,0,0,0,0,0,-0.0168,-0.0167,-0.0172,-0.017,-0.0168,-0.014,-0.0115,-0.0098,-0.0118,-0.0134,-0.0118,-0.0118,-0.0064,-0.0058,-0.0048,-0.0002,0.0002,-0.0014,-0.0012,-0.0011,-0.001,0,0,0,0,0,0,0,-0.0169,-0.0168,-0.0169,-0.0172,-0.0169,-0.0145,-0.0143,-0.0111,-0.0097,-0.0133,-0.0131,-0.013,-0.0062,-0.0051,-0.0046,0.0003,-0.0014,-0.0011,-0.0009,-0.0008,0.008,0.0081,0,0,0,0,0,0,-0.0181,-0.0169,-0.0171,-0.0168,-0.017,-0.0146,-0.0143,-0.0147,-0.0099,-0.0092,-0.0131,-0.0129,-0.0057,-0.005,-0.0042,-0.0009,-0.0011,-0.0007,-0.0005,0.008,0.008,0.0081,0,0,0,0,0,0,-0.0181,-0.0182,-0.0172,-0.0169,-0.0167,-0.0147,-0.0151,-0.0147,-0.014,-0.0098,-0.009,-0.013,-0.0057,-0.0047,-0.001,-0.0005,-0.0006,-0.0003,0.008,0.008,0.0081,0.0054,0,0,0,0,0,0,-0.0182,-0.0182,-0.0188,-0.0171,-0.0168,-0.0168,-0.0151,-0.0146,-0.0141,-0.0139,-0.0094,-0.0086,-0.0056,-0.0015,-0.0006,-0.0001,-0.0,0.0079,0.008,0.008,0.0055,0.0054,0.0053,0,0,0,0,0,-0.0182,-0.0201,-0.0188,-0.0188,-0.0177,-0.0169,-0.0165,-0.0148,-0.0141,-0.0141,-0.0104,-0.0087,-0.0006,-0.0012,-0.0002,0.0005,0.0079,0.008,0.008,0.0055,0.0054,0.0053,0,0,0,0,0,0,-0.0207,-0.0199,-0.0185,-0.0201,-0.0186,-0.0165,-0.0169,-0.0153,-0.0125,-0.0122,-0.008,-0.0068,-0.0036,-0.0012,-0.002,0.0032,0.0038,0.004,0.0015,0.0014,0.0013,0.0004,0.0003,0,0,0,0,0,-0.0214,-0.0223,-0.0205,-0.0216,-0.0213,-0.0189,-0.0184,-0.017,-0.0145,-0.0134,-0.0101,-0.0063,-0.0025,-0.0003,0.0029,0.006,0.008,0.007,0.0069,0.0068,0.0067,0.011,0.0113,0.0083,0.0083,0.0083,0,0,-0.0227,-0.0224,-0.0229,-0.0221,-0.021,-0.0206,-0.0186,-0.0185,-0.0172,-0.0127,-0.0104,-0.0067,-0.0018,0.0017,0.0033,0.0038,0.0084,0.0069,0.0067,0.0068,0.0111,0.0114,0.0117,0.0083,0.0083,0.0083,0,0,-0.0265,-0.0256,-0.0275,-0.0261,-0.0248,-0.0228,-0.023,-0.0207,-0.0189,-0.016,-0.0121,-0.008,-0.0032,0.0011,0.0039,0.0053,0.0075,0.0058,0.0051,0.0093,0.0096,0.0098,0.0113,0.0117,0.0061,0.0061,0.0061,0,-0.0281,-0.0297,-0.0279,-0.0287,-0.0277,-0.024,-0.0247,-0.0221,-0.0185,-0.0164,-0.0159,-0.007,-0.0033,0.0028,0.0033,0.0051,0.0068,0.0051,0.0091,0.0095,0.0098,0.0112,0.0117,0.0059,0.006,0.006,0.006,0,-0.0329,-0.0331,-0.0342,-0.0333,-0.0318,-0.032,-0.0279,-0.0258,-0.0232,-0.0198,-0.0145,-0.0087,-0.0033,-0.0014,0.0016,0.0063,0.0064,0.0082,0.0092,0.0099,0.0114,0.0119,0.0058,0.0058,0.0059,0.0059,0,0,-0.0392,-0.0379,-0.038,-0.0375,-0.0341,-0.0335,-0.0307,-0.0269,-0.0245,-0.02,-0.0165,-0.0092,-0.006,-0.0026,0.002,0.0061,0.0096,0.0078,0.0081,0.0087,0.0168,0.019,0.0198,0.0122,0.0123,0.0124,0.0163,0,-0.0433,-0.0458,-0.0432,-0.0433,-0.0438,-0.0381,-0.0355,-0.0308,-0.0261,-0.0216,-0.0143,-0.0095,-0.0063,-0.0035,0.0012,0.0083,0.0112,0.0082,0.0164,0.0166,0.0182,0.0207,0.0181,0.0216,0.0169,0.017,0.017,0,-0.0489,-0.0492,-0.0513,-0.0475,-0.0471,-0.046,-0.0403,-0.0374,-0.029,-0.0252,-0.0186,-0.0127,-0.0048,-0.003,0.0083,0.0061,0.0106,0.0152,0.0155,0.019,0.02,0.0205,0.0229,0.018,0.0179,0.0179,0.0178,0,-0.0551,-0.0543,-0.0561,-0.055,-0.0508,-0.0497,-0.0466,-0.0392,-0.0359,-0.0274,-0.0242,-0.0141,-0.009,-0.0009,0.009,0.0087,0.0202,0.0212,0.0267,0.0268,0.0271,0.027,0.0275,0.0275,0.0275,0.0275,0.0275,0,-0.0608,-0.0614,-0.0593,-0.0601,-0.06,-0.0551,-0.0531,-0.048,-0.0409,-0.0368,-0.027,-0.0215,-0.0082,0.0006,0.0084,0.0198,0.0198,0.0271,0.029,0.0259,0.0257,0.0249,0.0245,0.0276,0.0276,0.0276,0.0275,0,-0.0671,-0.0662,-0.0672,-0.0643,-0.0634,-0.0634,-0.0579,-0.0557,-0.0486,-0.0429,-0.0404,-0.0268,-0.0144,-0.0019,0.012,0.019,0.0295,0.0325,0.0268,0.0281,0.0327,0.0321,0.0396,0.0397,0.0398,0.0399,0.04,0,-0.0705,-0.0724,-0.0713,-0.0716,-0.0705,-0.0693,-0.0678,-0.0608,-0.0577,-0.0459,-0.0435,-0.0299,-0.0194,0.002,0.0174,0.032,0.0316,0.0367,0.037,0.0334,0.0344,0.0337,0.033,0.035,0.035,0.035,0.0351,0,-0.0755,-0.0755,-0.0761,-0.0774,-0.0772,-0.0762,-0.0735,-0.0726,-0.0637,-0.0585,-0.0488,-0.0395,-0.0161,0.0024,0.0225,0.0302,0.035,0.0378,0.0371,0.0328,0.0295,0.0304,0.0298,0.0353,0.0353,0.0352,0.0352,0.0352,-0.078,-0.0796,-0.0806,-0.0818,-0.0823,-0.0827,-0.0828,-0.0791,-0.0756,-0.0669,-0.0553,-0.0409,-0.0186,0.0101,0.0258,0.0393,0.0392,0.0416,0.0413,0.041,0.0403,0.0375,0.0444,0.0444,0.0445,0.0445,0.0445,0,-0.0797,-0.0818,-0.0839,-0.0854,-0.0876,-0.0865,-0.0859,-0.0851,-0.0828,-0.0732,-0.0631,-0.0395,-0.0149,0.0067,0.0295,0.0442,0.0423,0.0449,0.0404,0.04,0.0398,0.0388,0.0426,0.0427,0.0427,0.0428,0,0,-0.0801,-0.0831,-0.0847,-0.0894,-0.0913,-0.0935,-0.0941,-0.0923,-0.0868,-0.08,-0.0691,-0.048,-0.0179,-0.0016,0.0186,0.0305,0.0297,0.0302,0.0299,0.0216,0.0211,0.0363,0.0343,0,0,0,0,0]}],[{"header":{"parameterUnit":"m.s-1","parameterCategory":2,"la1":30.2991,"la2":30.254,"lo1":-89.0895,"lo2":-89.0444,"dy":0.0017,"dx":0.0017,"nx":28,"ny":28,"refTime":"2024-09-04T03:00:00:Z","depth":"4","parameterNumber":2,"parameterNumberName":"U-component_of_CURRENTS"},"data":[0,0,0,0,0,0,0,0,0,0,0,0,0,0,0,0,0,0,0,0,0,0,0,0,0,0,0,0,0,0,0,0,0,0,0,0,0,0,0,0,0,0,0,0,0,0,0,0,0,0,0,0,0,0,0,0,0,0,-0.1073,-0.1073,0,-0.1044,-0.1043,-0.1042,-0.1032,-0.1033,-0.1034,-0.1034,-0.1035,-0.1035,-0.1034,0,0,0,0,0,0,0,0,0,0,0,0,0,-0.1006,-0.1007,-0.1073,-0.1073,-0.1074,-0.1044,-0.1043,-0.1042,-0.1032,-0.1033,-0.1034,-0.1035,-0.1035,-0.1035,-0.1034,0,0,0,0,0,0,0,0,0,0,0,0,0,-0.1006,-0.1008,-0.1073,-0.107,-0.1069,-0.1044,-0.1043,-0.1042,-0.1032,-0.1033,-0.1034,-0.1035,-0.1036,-0.1035,-0.1034,-0.1008,0,0,-0.1031,-0.1031,0,0,0,0,0,0,0,0,-0.1006,-0.1008,-0.107,-0.107,-0.107,-0.1048,-0.102,-0.1034,-0.1032,-0.104,-0.1034,-0.1035,-0.1045,-0.1044,-0.1027,-0.1009,-0.1009,-0.1031,-0.1031,-0.103,-0.103,0,0,0,0,0,0,0,-0.1006,-0.1008,-0.1056,-0.107,-0.107,-0.103,-0.1032,-0.1021,-0.1033,-0.1039,-0.104,-0.1046,-0.1045,-0.1028,-0.1027,-0.1009,-0.1031,-0.103,-0.103,-0.1029,-0.109,-0.1092,0,0,0,0,0,0,-0.1027,-0.1009,-0.1057,-0.1055,-0.1046,-0.1032,-0.1033,-0.1049,-0.1033,-0.1033,-0.1045,-0.1046,-0.1029,-0.1028,-0.1027,-0.1076,-0.103,-0.1029,-0.1029,-0.1087,-0.109,-0.1092,0,0,0,0,0,0,-0.1026,-0.1032,-0.1058,-0.1035,-0.1037,-0.1033,-0.105,-0.1048,-0.105,-0.1038,-0.1038,-0.1053,-0.103,-0.1029,-0.104,-0.1074,-0.1029,-0.1028,-0.1085,-0.1088,-0.1091,-0.1123,0,0,0,0,0,0,-0.1024,-0.1032,-0.1053,-0.1037,-0.1039,-0.1049,-0.105,-0.1047,-0.1054,-0.1055,-0.1044,-0.1044,-0.103,-0.1042,-0.1039,-0.1072,-0.1027,-0.1082,-0.1086,-0.109,-0.112,-0.1127,-0.1134,0,0,0,0,0,-0.1022,-0.1051,-0.1054,-0.106,-0.1068,-0.105,-0.1046,-0.1041,-0.1054,-0.1048,-0.1056,-0.1045,-0.1067,-0.1042,-0.1039,-0.1071,-0.108,-0.1085,-0.109,-0.1117,-0.1126,-0.1134,0,0,0,0,0,0,-0.1031,-0.1052,-0.1056,-0.109,-0.1074,-0.1051,-0.1057,-0.1052,-0.1049,-0.1061,-0.1051,-0.1051,-0.1075,-0.1074,-0.1047,-0.1107,-0.108,-0.1085,-0.1102,-0.1111,-0.1118,-0.1074,-0.1027,0,0,0,0,0,-0.1044,-0.1075,-0.1068,-0.1094,-0.1092,-0.1076,-0.1073,-0.1065,-0.1062,-0.1061,-0.1062,-0.1077,-0.1088,-0.11,-0.1099,-0.1121,-0.1102,-0.1151,-0.1158,-0.1164,-0.1131,-0.1154,-0.1159,-0.1108,-0.1108,-0.1108,0,0,-0.1057,-0.1073,-0.1091,-0.1098,-0.109,-0.1082,-0.1076,-0.1074,-0.108,-0.1063,-0.1085,-0.1089,-0.1098,-0.1123,-0.1137,-0.1129,-0.1172,-0.117,-0.1174,-0.1137,-0.1159,-0.1163,-0.1167,-0.1111,-0.1111,-0.111,0,0,-0.1078,-0.1109,-0.1128,-0.1114,-0.1109,-0.1101,-0.1107,-0.1094,-0.1103,-0.1114,-0.1117,-0.1144,-0.1156,-0.1171,-0.1181,-0.1231,-0.1201,-0.1247,-0.1251,-0.1275,-0.1278,-0.1281,-0.1267,-0.1268,-0.1261,-0.1261,-0.1261,0,-0.1091,-0.1111,-0.1124,-0.112,-0.1121,-0.1115,-0.1112,-0.1115,-0.1111,-0.1123,-0.1133,-0.117,-0.1181,-0.1215,-0.1227,-0.1245,-0.1229,-0.1214,-0.1281,-0.1283,-0.1284,-0.127,-0.127,-0.1263,-0.1263,-0.1262,-0.1262,0,-0.1107,-0.1116,-0.1123,-0.1128,-0.113,-0.1125,-0.1131,-0.1145,-0.1169,-0.1165,-0.1204,-0.1222,-0.1247,-0.127,-0.1252,-0.1284,-0.1257,-0.1277,-0.1248,-0.1291,-0.1274,-0.1273,-0.1266,-0.1265,-0.1265,-0.1264,0,0,-0.1137,-0.1138,-0.1137,-0.113,-0.1132,-0.113,-0.1162,-0.1172,-0.1191,-0.1212,-0.1238,-0.1272,-0.1279,-0.1289,-0.1301,-0.1307,-0.1314,-0.1282,-0.1283,-0.1247,-0.1324,-0.1279,-0.1273,-0.1337,-0.1337,-0.1337,-0.1307,0,-0.1136,-0.1141,-0.1145,-0.1139,-0.1135,-0.1146,-0.1175,-0.119,-0.1211,-0.1232,-0.1268,-0.1295,-0.1294,-0.1315,-0.1323,-0.1303,-0.1312,-0.1316,-0.1304,-0.1303,-0.1241,-0.1272,-0.1338,-0.1307,-0.1307,-0.1307,-0.1306,0,-0.1131,-0.1138,-0.1148,-0.1144,-0.1147,-0.1157,-0.1199,-0.1215,-0.1245,-0.1265,-0.1296,-0.1307,-0.1327,-0.1332,-0.1329,-0.1323,-0.1316,-0.1302,-0.1303,-0.1236,-0.1256,-0.1258,-0.1305,-0.1306,-0.1306,-0.1306,-0.1306,0,-0.1133,-0.1126,-0.1146,-0.1141,-0.1153,-0.1177,-0.1197,-0.123,-0.1253,-0.1286,-0.1309,-0.1326,-0.1362,-0.1345,-0.1338,-0.1325,-0.1314,-0.132,-0.1275,-0.1271,-0.1303,-0.1301,-0.1323,-0.1323,-0.1323,-0.1323,-0.1323,0,-0.111,-0.111,-0.115,-0.1148,-0.1171,-0.1189,-0.1217,-0.1239,-0.1279,-0.1295,-0.1332,-0.1357,-0.1363,-0.1368,-0.1335,-0.1299,-0.134,-0.1251,-0.1261,-0.1321,-0.1321,-0.1302,-0.13,-0.1322,-0.1322,-0.1322,-0.1322,0,-0.1069,-0.1104,-0.111,-0.1148,-0.1164,-0.1182,-0.1222,-0.1235,-0.1292,-0.132,-0.1341,-0.1383,-0.1381,-0.1382,-0.1358,-0.1318,-0.1279,-0.1271,-0.1312,-0.1329,-0.1206,-0.1207,-0.1176,-0.1174,-0.1173,-0.1171,-0.117,0,-0.1037,-0.1046,-0.1103,-0.1115,-0.1127,-0.116,-0.1182,-0.1238,-0.125,-0.1328,-0.1334,-0.1374,-0.139,-0.1314,-0.1318,-0.1264,-0.1265,-0.1233,-0.1211,-0.1178,-0.1192,-0.1195,-0.1197,-0.1168,-0.1168,-0.1167,-0.1167,0,-0.0957,-0.1002,-0.101,-0.1051,-0.108,-0.1099,-0.1134,-0.1149,-0.1216,-0.1287,-0.1298,-0.1296,-0.1301,-0.1267,-0.1257,-0.122,-0.1231,-0.1216,-0.1218,-0.1197,-0.1168,-0.1183,-0.1188,-0.1161,-0.1162,-0.1163,-0.1163,0,-0.0892,-0.0886,-0.0925,-0.0943,-0.099,-0.1012,-0.1049,-0.1071,-0.1106,-0.1206,-0.1207,-0.125,-0.1294,-0.1247,-0.1228,-0.1195,-0.1162,-0.1111,-0.1118,-0.1124,-0.1122,-0.1079,-0.1037,0,0,0,0,0,-0.0808,-0.0793,-0.0806,-0.0831,-0.0883,-0.0912,-0.0994,-0.104,-0.1132,-0.1116,-0.116,-0.1161,-0.1146,-0.1164,-0.1112,-0.1183,-0.1155,-0.1118,-0.1099,-0.1131,-0.1138,-0.114,0,0,0,0,0,0,-0.0749,-0.0753,-0.0763,-0.0736,-0.0738,-0.0784,-0.0841,-0.0914,-0.0913,-0.1013,-0.101,-0.1081,-0.1076,-0.1145,-0.1079,-0.1084,-0.1049,-0.1147,-0.1145,-0.1128,-0.1133,-0.1138,-0.1143,0,0,0,0,0]},{"header":{"parameterUnit":"m.s-1","parameterCategory":2,"la1":30.2991,"la2":30.254,"lo1":-89.0895,"lo2":-89.0444,"dy":0.0017,"dx":0.0017,"nx":28,"ny":28,"refTime":"2024-09-04T03:00:00:Z","depth":"4","parameterNumber":3,"parameterNumberName":"V-component_of_CURRENTS"},"data":[0,0,0,0,0,0,0,0,0,0,0,0,0,0,0,0,0,0,0,0,0,0,0,0,0,0,0,0,0,0,0,0,0,0,0,0,0,0,0,0,0,0,0,0,0,0,0,0,0,0,0,0,0,0,0,0,0,0,-0.0167,-0.0167,0,-0.0162,-0.0161,-0.0161,-0.0142,-0.0142,-0.0142,-0.0141,-0.0097,-0.0096,-0.0095,0,0,0,0,0,0,0,0,0,0,0,0,0,-0.0143,-0.0144,-0.0167,-0.0167,-0.0167,-0.0162,-0.0161,-0.0161,-0.0142,-0.0142,-0.0142,-0.0141,-0.0097,-0.0096,-0.0095,0,0,0,0,0,0,0,0,0,0,0,0,0,-0.0146,-0.0144,-0.0167,-0.0157,-0.0157,-0.0162,-0.0161,-0.0161,-0.0143,-0.0142,-0.0142,-0.0141,-0.0097,-0.0096,-0.0095,-0.0097,0,0,-0.0091,-0.009,0,0,0,0,0,0,0,0,-0.0146,-0.0147,-0.0159,-0.0158,-0.0157,-0.0153,-0.0137,-0.0138,-0.0143,-0.0147,-0.0141,-0.0141,-0.0113,-0.011,-0.0109,-0.0095,-0.0093,-0.0091,-0.009,-0.0089,-0.0089,0,0,0,0,0,0,0,-0.0146,-0.0147,-0.0164,-0.0159,-0.0158,-0.0148,-0.0148,-0.0137,-0.0131,-0.0146,-0.0145,-0.0147,-0.0112,-0.0111,-0.0108,-0.0092,-0.0091,-0.0089,-0.0089,-0.0088,-0.0066,-0.0066,0,0,0,0,0,0,-0.015,-0.0147,-0.0164,-0.0163,-0.0152,-0.0149,-0.0149,-0.0154,-0.0132,-0.0129,-0.0147,-0.0146,-0.0113,-0.011,-0.0106,-0.0107,-0.0089,-0.0088,-0.0087,-0.0066,-0.0066,-0.0066,0,0,0,0,0,0,-0.015,-0.0152,-0.0164,-0.0156,-0.0157,-0.015,-0.0156,-0.0154,-0.0156,-0.0133,-0.0129,-0.0151,-0.0113,-0.0108,-0.0101,-0.0105,-0.0087,-0.0086,-0.0065,-0.0066,-0.0066,-0.0108,0,0,0,0,0,0,-0.0149,-0.0152,-0.0159,-0.0156,-0.0157,-0.0173,-0.0157,-0.0155,-0.0158,-0.0156,-0.0135,-0.013,-0.0112,-0.0103,-0.0099,-0.0103,-0.0085,-0.0065,-0.0065,-0.0066,-0.0106,-0.011,-0.0113,0,0,0,0,0,-0.0149,-0.0165,-0.0159,-0.0162,-0.0167,-0.0174,-0.0174,-0.0166,-0.0159,-0.0165,-0.0148,-0.0131,-0.0102,-0.0102,-0.0098,-0.0101,-0.0065,-0.0065,-0.0066,-0.0105,-0.0109,-0.0112,0,0,0,0,0,0,-0.0164,-0.0165,-0.0158,-0.0175,-0.0176,-0.0171,-0.0179,-0.0172,-0.0165,-0.0162,-0.0137,-0.0132,-0.0129,-0.0109,-0.0109,-0.0095,-0.0079,-0.0079,-0.0111,-0.0114,-0.0117,-0.0135,-0.0084,0,0,0,0,0,-0.0169,-0.018,-0.0177,-0.0191,-0.0193,-0.0186,-0.0189,-0.0183,-0.0176,-0.0173,-0.0158,-0.014,-0.0128,-0.0116,-0.0106,-0.0098,-0.0067,-0.0095,-0.0098,-0.0101,-0.0112,-0.0061,-0.0061,-0.0067,-0.0067,-0.0067,0,0,-0.018,-0.0182,-0.0188,-0.0195,-0.0195,-0.0203,-0.0187,-0.0195,-0.0201,-0.0169,-0.0173,-0.0156,-0.013,-0.0124,-0.012,-0.0106,-0.0083,-0.0102,-0.0104,-0.0114,-0.0062,-0.0061,-0.006,-0.0068,-0.0068,-0.0068,0,0,-0.0209,-0.0209,-0.0225,-0.0225,-0.0228,-0.0223,-0.0227,-0.0224,-0.0221,-0.0223,-0.02,-0.0182,-0.017,-0.0144,-0.0131,-0.0143,-0.0108,-0.0143,-0.0165,-0.0115,-0.0114,-0.0113,-0.0072,-0.0067,-0.0136,-0.0136,-0.0136,0,-0.0222,-0.0238,-0.0232,-0.0245,-0.0247,-0.0234,-0.0247,-0.0246,-0.024,-0.0236,-0.0231,-0.0197,-0.0177,-0.0153,-0.0165,-0.0149,-0.0124,-0.0154,-0.0119,-0.0117,-0.0115,-0.0074,-0.0067,-0.0138,-0.0138,-0.0138,-0.0137,0,-0.0259,-0.0268,-0.028,-0.0288,-0.029,-0.0301,-0.0294,-0.0294,-0.0288,-0.0281,-0.0266,-0.0233,-0.0204,-0.0199,-0.0193,-0.0169,-0.0157,-0.0135,-0.0111,-0.0117,-0.0073,-0.0065,-0.0141,-0.014,-0.014,-0.0139,0,0,-0.0298,-0.0304,-0.0308,-0.0311,-0.0311,-0.0317,-0.0324,-0.0323,-0.032,-0.031,-0.0297,-0.028,-0.0254,-0.0237,-0.0208,-0.0178,-0.0144,-0.0164,-0.0161,-0.0127,-0.0046,-0.0043,-0.0034,-0.012,-0.0119,-0.0118,-0.002,0,-0.0329,-0.0357,-0.0349,-0.0369,-0.038,-0.0361,-0.0366,-0.036,-0.0348,-0.0333,-0.0295,-0.0275,-0.0268,-0.0246,-0.0217,-0.0161,-0.0128,-0.0174,-0.0043,-0.0039,-0.0037,-0.0026,-0.0115,-0.0014,-0.0013,-0.0011,-0.001,0,-0.0368,-0.0378,-0.0407,-0.0398,-0.0401,-0.041,-0.0399,-0.04,-0.0375,-0.036,-0.0327,-0.0295,-0.0248,-0.0238,-0.0141,-0.0174,-0.0125,-0.0084,-0.0078,-0.0058,-0.0023,-0.0006,0.0003,0.0002,0.0001,0.0,-0.0,0,-0.0402,-0.0413,-0.0437,-0.0439,-0.0435,-0.0438,-0.0432,-0.0414,-0.0407,-0.037,-0.0346,-0.029,-0.0238,-0.0179,-0.0099,-0.0117,0.0007,0.0012,0.0063,0.0065,0.0051,0.0048,0.0076,0.0076,0.0075,0.0075,0.0075,0,-0.0436,-0.045,-0.0456,-0.0469,-0.0484,-0.0468,-0.0473,-0.0456,-0.0424,-0.0408,-0.0358,-0.0312,-0.0224,-0.0142,-0.0089,0.0015,0.0034,0.0056,0.0091,0.0031,0.0025,0.0057,0.0053,0.0079,0.0078,0.0077,0.0077,0,-0.047,-0.0477,-0.05,-0.0503,-0.0506,-0.0517,-0.0501,-0.0496,-0.0457,-0.0426,-0.0409,-0.0314,-0.0205,-0.0113,0.0008,0.0048,0.0136,0.0168,0.0097,0.0127,0.0153,0.0146,0.0232,0.0233,0.0234,0.0234,0.0235,0,-0.0487,-0.0508,-0.0532,-0.0546,-0.0551,-0.056,-0.0562,-0.0527,-0.0512,-0.0424,-0.0404,-0.0287,-0.0221,-0.0039,0.005,0.0178,0.0183,0.023,0.0172,0.0144,0.017,0.0162,0.0154,0.0236,0.0236,0.0236,0.0237,0,-0.0514,-0.0532,-0.0551,-0.0584,-0.0598,-0.0606,-0.0599,-0.0585,-0.0532,-0.0493,-0.039,-0.0288,-0.0158,-0.0035,0.0076,0.0158,0.0198,0.0238,0.0236,0.0182,0.0151,0.0173,0.0165,0.0239,0.0239,0.0239,0.0239,0,-0.0531,-0.0552,-0.0583,-0.0607,-0.0634,-0.0641,-0.0632,-0.059,-0.0561,-0.046,-0.0423,-0.028,-0.0191,-0.0042,0.0056,0.0145,0.0149,0.0155,0.0157,0.0156,0.0094,0.004,0.0126,0,0,0,0,0,-0.0539,-0.0563,-0.0594,-0.0621,-0.065,-0.0663,-0.065,-0.0629,-0.0573,-0.051,-0.0465,-0.0347,-0.0171,-0.0085,0.0002,0.0052,0.0154,0.0156,0.0158,0.0255,0.0252,0.0191,0,0,0,0,0,0,-0.0543,-0.058,-0.0596,-0.0631,-0.0653,-0.0675,-0.0672,-0.0633,-0.0587,-0.0519,-0.0425,-0.0347,-0.018,-0.0232,-0.0006,0.0027,0.0036,0.0247,0.0248,0.0257,0.0254,0.0251,0.0188,0,0,0,0,0]}]]